Wetbulb
70.60 74.49 77.22 77.25 77.02 76.86 77.27 76.61 76.50 76.36 76.93 77.47 77.58 76.91 77.89 77.63 77.71 77.67 77.63 77.29 77.47 77.71 77.59 77.36 77.25 76.63 77.13 75.77 76.46 77.00 76.69 76.66 76.56 76.20 75.68 75.92 75.92 75.92 75.88 75.52 75.31 74.00 75.58
72.99 75.11 77.29 77.58 77.21 76.85 76.21 76.12 75.87 75.87 76.07 76.81 76.99 77.25 77.01 77.22 77.34 77.38 77.71 77.34 77.40 77.76 77.29 76.86 76.56 76.56 76.73 76.45 76.39 76.60 76.37 77.22 77.19 76.13 75.38 76.02 76.03 75.83 75.65 75.70 75.69 74.36 75.40
73.67 75.16 76.15 77.63 76.56 76.03 76.93 76.10 75.45 75.30 75.44 75.76 76.80 76.71 77.11 77.24 77.29 77.41 77.28 77.47 77.34 76.94 77.24 76.54 76.54 76.95 76.24 75.93 76.15 75.98 76.01 76.95 75.64 74.72 75.17 72.57 73.53 75.01 75.90 75.67 75.53 75.16 74.39
74.23 74.29 75.25 76.91 76.89 76.57 77.39 76.61 76.60 77.15 77.01 76.02 76.25 76.28 76.91 77.13 77.16 77.31 77.31 77.13 77.20 77.30 77.22 76.87 76.87 76.48 76.10 75.80 75.63 75.74 76.06 75.32 74.58 74.60 71.94 72.49 73.52 75.45 74.27 75.27 75.33 75.72 75.70
72.95 73.31 74.04 77.18 77.60 77.07 76.90 77.15 76.61 76.51 76.90 76.52 76.20 76.51 76.47 76.79 77.04 77.14 77.27 77.11 77.42 77.34 77.00 76.49 76.51 76.64 75.82 75.41 75.35 75.32 74.79 76.42 75.57 73.63 71.23 71.61 72.40 75.00 74.65 75.62 75.27 75.68 75.69
72.53 73.28 75.86 76.77 76.95 76.96 76.93 76.86 77.07 76.75 76.83 76.69 76.71 76.49 76.25 76.64 76.86 76.88 77.11 76.95 76.62 76.74 76.38 76.27 76.24 76.13 75.80 75.90 75.54 76.07 76.58 75.55 74.08 72.23 72.26 73.54 72.23 75.41 74.82 74.15 74.42 74.79 74.47
72.63 74.21 74.77 77.74 77.27 76.69 76.52 76.74 76.62 76.66 76.88 76.87 76.81 76.58 76.70 76.69 76.84 76.90 76.87 76.70 76.85 76.70 76.51 75.66 75.43 76.21 75.96 76.77 77.86 77.59 76.04 74.57 71.17 71.57 71.76 72.26 73.38 75.26 75.83 73.98 74.06 73.94 74.10
72.81 74.19 75.09 76.97 76.78 76.82 77.13 76.82 76.82 76.74 76.82 76.59 76.52 76.48 76.49 76.50 77.09 76.84 76.67 76.46 76.29 76.49 76.68 76.37 75.77 75.82 75.68 76.30 77.03 76.88 75.57 74.02 72.57 71.82 72.25 72.86 75.46 75.44 74.72 73.87 73.84 74.00 74.36
74.28 73.67 73.76 74.41 75.99 77.03 76.86 76.99 77.02 76.83 76.56 76.27 76.49 76.47 76.33 76.25 76.56 76.48 76.73 76.41 76.41 76.49 76.60 76.04 75.40 75.09 75.36 75.74 76.75 77.11 74.82 74.24 71.06 72.07 72.16 72.36 74.95 75.45 74.74 73.73 73.69 73.73 74.03
72.77 73.64 73.25 73.59 74.00 73.40 74.29 76.72 76.56 76.53 76.54 76.66 76.20 76.46 76.31 76.45 76.65 76.48 77.21 77.03 76.55 76.27 75.93 75.96 75.48 75.19 74.48 74.85 76.28 76.23 75.95 74.75 70.58 70.62 71.02 72.95 75.69 75.82 74.38 73.51 74.05 74.23 73.53
72.25 72.28 73.27 72.70 72.70 73.04 73.56 75.07 76.17 76.52 76.36 76.50 76.01 76.45 75.26 72.48 73.09 74.03 76.20 77.29 76.66 76.27 76.37 75.03 75.09 74.61 74.18 74.39 75.33 76.90 74.38 70.90 71.20 72.00 72.15 74.49 75.32 75.47 75.73 73.50 73.08 73.45 73.14
70.10 71.64 72.21 71.78 72.07 72.85 75.02 73.24 72.37 73.81 72.57 72.58 72.21 71.93 71.67 71.35 72.30 73.76 75.32 76.63 76.46 76.69 74.57 73.04 73.77 74.22 72.47 71.50 71.24 74.59 70.77 71.18 71.59 72.08 72.92 74.88 75.44 74.79 74.08 73.31 73.70 73.33 72.86
69.96 70.59 71.34 71.63 72.02 71.87 72.45 72.35 72.34 72.30 71.99 71.53 70.90 71.00 70.89 71.65 72.20 72.14 70.76 70.97 72.04 73.17 68.81 70.54 71.23 70.06 68.89 68.84 70.60 71.07 71.14 71.04 70.96 72.12 73.29 75.20 75.31 74.69 74.21 74.01 73.04 72.73 72.81
69.88 70.55 71.13 71.45 71.38 70.95 72.53 71.88 71.40 71.42 70.52 70.48 70.75 71.38 69.34 68.54 69.75 69.24 69.04 69.51 68.90 67.56 68.40 68.91 69.60 70.97 71.85 70.85 69.15 70.40 70.45 70.23 70.05 71.59 72.19 75.35 75.94 75.31 73.68 74.29 74.21 73.07 72.93
69.63 70.64 70.88 71.35 71.49 71.56 71.96 71.10 70.74 71.12 70.19 70.52 70.30 70.46 70.40 66.97 68.70 69.76 69.72 67.99 70.19 69.27 68.37 68.90 69.46 69.47 70.04 71.24 68.97 70.75 69.97 69.79 70.40 72.19 72.14 74.01 75.19 75.61 73.52 73.33 73.61 73.62 73.40
70.09 70.47 70.41 71.62 72.56 71.46 70.63 70.89 70.51 70.78 70.57 70.09 69.82 70.43 71.48 68.40 68.27 67.37 69.07 66.98 69.59 68.68 66.10 68.52 68.40 67.83 69.79 68.32 67.74 70.08 69.58 69.64 70.54 71.59 71.31 72.16 75.10 75.45 74.48 74.34 73.62 73.45 73.74
69.87 69.66 70.43 70.62 72.22 71.86 70.14 69.94 69.87 70.04 70.37 70.72 71.51 71.68 71.03 69.71 69.20 69.39 69.04 69.18 69.72 70.24 70.45 69.29 69.63 70.73 70.21 68.50 67.69 67.42 68.31 69.18 69.55 70.45 71.15 71.47 73.39 75.42 74.94 74.94 74.97 74.40 73.87
69.46 69.74 70.70 72.12 72.09 72.08 71.30 70.36 70.38 70.45 70.43 71.36 72.14 72.39 70.55 70.88 70.79 70.10 69.01 69.02 69.65 70.36 70.22 69.02 69.54 69.32 67.95 67.50 67.21 67.12 67.49 67.99 68.32 68.65 69.74 71.06 72.36 72.90 74.38 75.44 76.10 75.69 74.80
68.96 68.33 69.49 70.75 71.10 71.43 72.18 70.92 70.28 70.72 71.04 71.15 71.44 71.74 72.21 72.69 72.59 71.07 69.86 69.89 70.45 70.22 70.02 69.20 68.03 68.12 68.34 68.15 68.05 68.27 68.92 68.14 68.45 69.22 68.18 68.76 69.39 70.77 70.40 73.47 76.34 76.57 75.32
68.46 67.95 70.07 69.99 71.14 71.54 71.03 71.22 70.93 70.93 70.66 72.84 73.26 72.64 73.21 72.40 71.56 71.03 70.63 71.36 70.97 69.19 69.45 69.92 68.50 68.61 67.50 66.40 68.49 69.62 68.05 68.05 68.12 68.42 68.32 69.68 69.03 69.38 69.38 70.18 71.42 73.72 76.08
69.00 67.63 67.75 69.88 70.33 70.90 70.09 69.36 69.49 69.06 70.32 70.63 71.38 72.98 72.95 71.93 69.83 70.66 70.77 71.60 71.04 69.56 68.73 69.28 70.25 68.28 68.62 67.79 66.07 66.63 66.54 66.62 67.64 68.36 68.03 68.68 69.25 70.34 70.18 70.43 70.20 71.17 71.77
68.17 67.49 68.38 70.21 69.64 70.18 70.55 70.52 71.01 70.11 70.55 71.07 71.02 70.90 72.89 71.50 70.13 71.33 70.63 70.55 70.35 70.43 70.63 70.50 69.78 68.15 67.66 66.55 65.32 65.37 61.84 63.04 65.39 67.18 68.10 68.72 68.08 69.84 70.78 71.39 71.29 71.29 70.90
68.23 69.22 68.35 69.84 68.38 69.29 71.14 70.64 70.26 68.86 68.56 69.60 70.28 71.10 72.30 72.92 72.95 70.44 71.22 70.91 69.61 69.49 69.15 69.94 68.22 66.19 65.45 67.67 67.76 65.40 62.49 60.99 63.98 64.02 64.83 67.20 67.32 67.36 69.06 70.15 70.75 71.33 71.63
68.61 70.61 69.59 70.01 69.58 70.75 70.42 69.11 68.55 67.37 66.22 68.26 69.27 71.04 71.79 73.26 72.73 72.04 71.97 70.00 71.35 69.66 69.18 70.43 70.36 69.29 67.55 67.67 66.60 69.37 67.00 65.77 63.45 60.49 63.89 64.97 64.62 66.02 67.61 68.42 69.46 70.36 70.25
69.41 70.65 70.29 70.04 69.14 71.02 70.83 69.34 67.99 65.31 67.00 69.40 70.22 70.47 71.21 71.04 73.14 73.10 70.08 69.92 70.44 69.57 69.21 69.35 71.23 70.30 70.35 69.72 68.55 68.69 66.87 67.17 66.28 63.80 60.14 61.75 64.00 65.40 66.33 66.94 67.99 68.72 69.84
69.65 71.12 70.46 69.57 68.27 69.34 71.22 70.07 68.29 67.94 68.49 68.61 68.97 70.12 70.79 71.23 71.76 72.74 72.96 71.63 70.69 69.94 69.52 70.32 69.31 71.04 70.34 70.60 71.22 69.09 67.31 66.36 66.08 64.98 62.97 63.28 61.92 64.11 66.32 67.13 67.50 68.44 69.07
MSLP
1016.82 1016.58 1016.63 1016.73 1016.88 1017.07 1017.15 1017.21 1017.26 1017.32 1017.37 1017.47 1017.42 1017.39 1017.36 1017.41 1017.43 1017.46 1017.46 1017.47 1017.40 1017.41 1017.51 1017.59 1017.58 1017.60 1017.68 1017.71 1017.67 1017.69 1017.65 1017.79 1017.84 1017.91 1017.99 1018.00 1018.06 1018.11 1018.01 1018.15 1018.21 1018.17 1018.18
1016.23 1016.53 1016.61 1016.70 1016.84 1017.04 1017.24 1017.37 1017.41 1017.48 1017.55 1017.60 1017.67 1017.68 1017.64 1017.56 1017.50 1017.49 1017.53 1017.56 1017.55 1017.55 1017.65 1017.77 1017.87 1018.05 1018.07 1017.99 1018.01 1018.02 1018.05 1018.03 1018.04 1018.10 1018.34 1018.25 1018.33 1018.43 1018.36 1018.56 1018.48 1018.53 1018.46
1016.31 1016.49 1016.70 1016.82 1016.91 1017.04 1017.31 1017.55 1017.71 1017.76 1017.76 1017.77 1017.81 1017.86 1017.84 1017.80 1017.75 1017.71 1017.73 1017.78 1017.80 1017.90 1017.99 1018.06 1018.18 1018.24 1018.32 1018.31 1018.42 1018.51 1018.47 1018.53 1018.43 1018.66 1018.92 1018.87 1018.80 1018.78 1018.77 1018.81 1018.78 1018.79 1018.78
1016.32 1016.58 1016.82 1016.94 1017.08 1017.26 1017.42 1017.60 1017.71 1017.78 1017.91 1017.95 1017.96 1017.97 1017.96 1018.03 1018.11 1018.12 1018.21 1018.15 1018.08 1018.25 1018.42 1018.48 1018.50 1018.57 1018.61 1018.67 1018.77 1018.73 1018.82 1018.91 1018.87 1019.03 1019.26 1019.30 1019.13 1019.07 1019.24 1019.21 1019.14 1019.08 1019.05
1016.51 1016.77 1016.89 1017.05 1017.26 1017.46 1017.61 1017.73 1017.91 1017.97 1018.06 1018.14 1018.14 1018.16 1018.23 1018.22 1018.25 1018.32 1018.38 1018.50 1018.53 1018.48 1018.66 1018.82 1018.92 1019.00 1018.98 1018.90 1018.96 1019.02 1019.09 1019.04 1019.29 1019.49 1019.69 1019.63 1019.52 1019.40 1019.62 1019.51 1019.44 1019.37 1019.37
1016.78 1016.95 1016.98 1017.16 1017.42 1017.62 1017.83 1017.95 1017.95 1018.08 1018.14 1018.12 1018.17 1018.22 1018.22 1018.28 1018.33 1018.43 1018.53 1018.69 1018.82 1018.90 1018.93 1018.97 1019.14 1019.26 1019.20 1019.03 1018.92 1019.23 1019.30 1019.53 1019.76 1019.91 1019.95 1019.84 1019.82 1019.69 1019.87 1019.94 1019.91 1019.87 1019.76
1017.06 1017.17 1017.31 1017.36 1017.47 1017.72 1017.95 1018.05 1018.19 1018.20 1018.23 1018.31 1018.30 1018.41 1018.49 1018.55 1018.58 1018.67 1018.82 1018.76 1018.76 1018.90 1019.11 1019.19 1019.26 1019.43 1019.48 1019.40 1019.14 1019.47 1019.72 1019.90 1020.17 1020.23 1020.21 1020.16 1020.08 1020.10 1020.07 1020.29 1020.26 1020.16 1020.08
1016.98 1017.34 1017.50 1017.67 1017.75 1017.84 1017.91 1018.11 1018.31 1018.31 1018.40 1018.45 1018.61 1018.69 1018.87 1018.85 1018.78 1018.92 1018.98 1018.97 1018.95 1019.00 1019.17 1019.39 1019.49 1019.69 1019.90 1019.91 1019.95 1020.04 1020.15 1020.25 1020.36 1020.49 1020.53 1020.43 1020.26 1020.33 1020.44 1020.55 1020.53 1020.41 1020.36
1016.93 1017.28 1017.61 1017.81 1017.92 1018.07 1018.16 1018.30 1018.38 1018.50 1018.53 1018.67 1018.80 1018.87 1018.95 1019.07 1019.12 1019.12 1019.22 1019.21 1019.27 1019.32 1019.45 1019.80 1019.93 1019.99 1020.31 1020.25 1020.12 1020.16 1020.39 1020.59 1020.68 1020.67 1020.71 1020.68 1020.57 1020.58 1020.69 1020.76 1020.74 1020.71 1020.67
1017.20 1017.33 1017.74 1017.95 1018.15 1018.38 1018.46 1018.56 1018.65 1018.66 1018.70 1018.88 1018.88 1018.99 1019.16 1019.21 1019.17 1019.28 1019.42 1019.50 1019.63 1019.67 1019.81 1019.94 1020.19 1020.22 1020.58 1020.58 1020.51 1020.51 1020.58 1020.78 1020.95 1020.97 1021.00 1020.92 1020.78 1020.73 1020.88 1020.97 1020.94 1020.95 1020.96
1017.83 1017.84 1017.84 1018.11 1018.45 1018.63 1018.76 1018.85 1018.85 1018.86 1018.88 1018.96 1018.96 1019.07 1019.30 1019.43 1019.58 1019.75 1019.82 1019.81 1019.84 1019.86 1020.11 1020.21 1020.26 1020.51 1020.57 1020.82 1020.71 1020.72 1020.87 1021.01 1021.14 1021.18 1021.20 1021.06 1021.01 1020.97 1021.02 1021.15 1021.20 1021.19 1021.21
1017.98 1018.09 1018.15 1018.36 1018.63 1018.75 1018.83 1019.14 1019.22 1019.15 1019.25 1019.10 1019.25 1019.59 1019.72 1019.71 1019.91 1020.00 1019.94 1019.98 1020.01 1020.24 1020.34 1020.21 1020.44 1020.65 1020.80 1021.06 1021.07 1021.02 1021.19 1021.15 1021.24 1021.34 1021.29 1021.16 1021.18 1021.17 1021.19 1021.25 1021.30 1021.32 1021.39
1017.67 1018.05 1018.35 1018.39 1018.56 1018.76 1019.12 1019.34 1019.41 1019.45 1019.61 1019.46 1019.36 1019.60 1019.85 1020.23 1020.47 1020.37 1020.58 1020.57 1020.45 1020.68 1020.69 1020.12 1020.38 1020.71 1021.06 1021.23 1021.31 1021.11 1021.19 1021.23 1021.34 1021.40 1021.28 1021.21 1021.19 1021.20 1021.29 1021.30 1021.37 1021.40 1021.47
1017.54 1017.80 1018.34 1018.29 1018.60 1018.81 1019.06 1019.45 1019.55 1019.68 1019.75 1019.68 1019.64 1019.75 1020.07 1020.84 1020.83 1020.59 1020.78 1020.83 1020.82 1020.88 1021.01 1020.83 1020.72 1020.70 1020.61 1020.92 1021.18 1021.04 1021.22 1021.33 1021.49 1021.49 1021.37 1021.22 1021.17 1021.22 1021.28 1021.32 1021.37 1021.40 1021.47
1017.32 1017.68 1018.17 1018.16 1018.55 1018.75 1018.98 1019.40 1019.65 1019.69 1019.82 1019.64 1019.67 1019.67 1020.16 1020.88 1020.89 1020.89 1020.98 1021.12 1021.12 1021.02 1021.00 1020.98 1021.03 1021.17 1021.09 1020.42 1020.31 1020.56 1021.11 1021.33 1021.42 1021.54 1021.48 1021.27 1021.26 1021.31 1021.32 1021.30 1021.36 1021.40 1021.42
1017.23 1017.64 1017.97 1018.20 1018.35 1018.71 1018.81 1019.20 1019.53 1019.65 1019.79 1019.67 1019.77 1019.75 1020.08 1020.53 1020.91 1021.00 1021.17 1021.07 1021.26 1021.21 1021.16 1021.22 1021.41 1021.33 1021.10 1020.83 1020.67 1020.52 1020.76 1021.03 1021.22 1021.43 1021.43 1021.31 1021.33 1021.41 1021.36 1021.35 1021.40 1021.42 1021.38
1017.21 1017.53 1017.79 1018.18 1018.36 1018.73 1018.99 1019.20 1019.34 1019.59 1019.89 1019.80 1019.72 1019.84 1019.99 1020.43 1020.56 1020.83 1021.12 1021.27 1021.04 1021.09 1021.03 1021.09 1021.26 1021.10 1020.94 1021.00 1020.88 1020.92 1020.89 1020.98 1021.23 1021.26 1021.30 1021.35 1021.32 1021.34 1021.31 1021.30 1021.34 1021.38 1021.31
1017.20 1017.61 1017.88 1018.02 1018.50 1018.76 1019.05 1019.16 1019.28 1019.59 1019.79 1019.97 1019.91 1020.00 1020.28 1020.47 1020.60 1020.90 1021.19 1021.25 1021.36 1021.51 1021.46 1021.44 1021.55 1021.40 1021.35 1021.15 1021.12 1021.29 1021.18 1021.20 1021.23 1021.22 1021.37 1021.43 1021.34 1021.26 1021.20 1021.21 1021.26 1021.28 1021.19
1017.28 1017.55 1017.94 1018.22 1018.58 1019.01 1019.22 1019.07 1019.36 1019.61 1019.82 1020.00 1019.92 1020.31 1020.69 1020.84 1021.02 1021.07 1021.20 1021.32 1021.40 1021.41 1021.51 1021.67 1021.76 1021.49 1021.52 1021.35 1021.18 1021.09 1020.93 1021.27 1021.13 1021.11 1021.41 1021.39 1021.28 1021.20 1021.20 1021.14 1021.14 1021.12 1021.01
1017.40 1017.59 1017.86 1018.38 1018.77 1019.02 1019.33 1019.56 1019.82 1020.00 1020.17 1019.99 1020.11 1020.21 1020.44 1020.49 1020.84 1021.24 1021.42 1021.48 1021.43 1021.68 1021.87 1021.74 1021.49 1021.47 1021.58 1021.52 1021.39 1021.13 1020.99 1021.14 1021.18 1021.19 1021.19 1021.16 1021.23 1021.14 1021.11 1021.09 1021.06 1020.98 1020.78
1017.30 1017.67 1018.07 1018.45 1018.99 1019.30 1019.62 1020.18 1020.43 1020.74 1020.56 1020.57 1020.46 1020.36 1020.56 1020.85 1021.09 1021.28 1021.30 1021.36 1021.60 1021.84 1021.67 1021.88 1021.68 1021.61 1021.61 1021.58 1021.84 1021.50 1021.13 1021.07 1021.22 1021.19 1021.10 1021.13 1021.10 1020.88 1020.89 1020.97 1020.96 1020.92 1020.64
1017.18 1017.72 1018.19 1018.53 1018.95 1019.35 1019.71 1019.98 1020.28 1020.70 1020.88 1020.75 1020.75 1020.83 1020.65 1020.89 1021.16 1021.33 1021.27 1021.44 1021.58 1021.70 1021.61 1021.63 1021.66 1021.80 1021.79 1021.77 1022.07 1022.08 1022.09 1021.55 1021.28 1021.05 1020.86 1021.06 1020.86 1020.78 1020.71 1020.67 1020.69 1020.71 1020.54
1017.15 1017.58 1018.19 1018.47 1018.83 1019.23 1019.76 1020.11 1020.50 1020.69 1020.96 1021.22 1021.11 1021.03 1020.85 1020.94 1021.15 1021.29 1021.25 1021.52 1021.63 1021.92 1021.99 1021.92 1021.93 1021.91 1022.06 1021.83 1021.61 1022.01 1022.29 1022.12 1021.75 1021.20 1020.93 1020.92 1020.90 1020.92 1020.52 1020.38 1020.31 1020.29 1020.19
1016.84 1017.20 1017.75 1018.17 1018.69 1019.24 1019.77 1020.11 1020.44 1020.85 1021.17 1021.18 1021.14 1021.06 1020.98 1020.90 1021.12 1021.21 1021.42 1021.60 1021.65 1021.84 1021.99 1021.83 1021.61 1021.93 1022.03 1022.17 1021.84 1021.60 1021.53 1021.71 1021.91 1021.97 1021.29 1020.89 1020.88 1020.87 1020.58 1020.27 1020.05 1019.90 1019.83
1016.43 1016.78 1017.40 1018.00 1018.64 1019.15 1019.66 1020.01 1020.42 1020.83 1020.98 1021.00 1020.96 1021.11 1021.23 1021.22 1020.96 1021.08 1021.34 1021.63 1021.81 1021.81 1021.79 1021.86 1021.74 1021.96 1022.04 1022.05 1022.14 1021.97 1021.76 1021.74 1021.71 1021.95 1021.90 1021.28 1020.73 1020.47 1020.36 1020.22 1020.03 1019.85 1019.68
1016.37 1016.79 1017.26 1018.00 1018.53 1019.00 1019.35 1019.98 1020.37 1020.59 1020.87 1021.13 1021.20 1021.18 1021.13 1021.32 1021.13 1021.15 1021.23 1021.46 1021.62 1021.80 1021.72 1021.78 1021.98 1022.03 1022.06 1022.01 1022.11 1022.15 1022.14 1022.20 1022.25 1022.18 1022.06 1021.76 1021.48 1020.63 1020.17 1019.98 1019.87 1019.58 1019.41
Wind_Speed
4 6 13 14 15 15 15 14 13 13 13 14 14 13 14 15 15 14 15 15 15 14 16 17 17 18 19 20 20 20 20 19 19 19 18 18 18 17 17 15 13 10 14
9 7 14 14 15 14 14 13 13 12 13 12 14 13 14 14 14 14 14 14 14 14 16 16 17 18 18 18 18 19 20 18 18 19 17 18 18 17 17 16 14 13 16
11 10 11 14 14 14 13 13 13 13 13 13 13 13 14 13 14 15 14 14 14 14 15 16 17 17 17 16 17 18 18 17 19 19 15 5 9 17 16 16 16 15 15
11 8 9 13 13 13 14 13 12 12 13 13 12 12 11 14 13 14 14 13 13 14 14 15 15 16 15 14 14 14 13 12 17 15 5 5 10 15 14 14 16 14 15
10 7 10 13 13 13 13 12 11 12 14 13 12 12 12 13 14 15 13 13 13 13 13 13 13 13 12 9 10 12 11 17 17 11 6 5 4 13 14 14 14 15 15
9 7 13 14 14 13 12 12 12 13 12 13 12 13 13 14 14 15 15 14 12 13 13 12 12 12 10 9 7 13 18 17 14 6 5 7 5 14 14 14 14 14 15
9 7 9 13 14 13 12 12 12 12 12 12 13 12 13 15 15 15 14 13 12 11 11 11 10 11 10 11 14 15 16 15 7 5 5 5 5 13 14 14 14 14 13
13 8 8 13 13 14 13 12 13 12 12 12 12 12 12 13 14 14 13 12 10 10 9 10 8 9 9 12 11 15 16 15 9 6 4 4 10 12 14 13 12 12 12
12 9 6 6 10 13 13 12 12 12 12 12 12 12 13 13 14 13 13 12 8 9 8 8 6 7 9 8 9 17 15 13 5 5 6 3 10 10 13 12 11 11 11
10 10 7 5 6 5 5 12 12 11 12 12 12 14 14 13 13 13 11 10 10 8 8 6 4 4 3 3 8 15 15 12 4 4 3 3 9 11 12 10 9 9 9
8 7 7 6 5 5 4 7 11 12 12 13 11 13 10 4 5 8 9 9 11 8 8 4 3 3 2 4 7 12 11 3 4 2 2 7 9 9 11 9 8 8 8
8 7 6 6 6 6 6 5 4 4 3 4 5 6 3 3 5 5 8 9 8 10 6 2 6 8 9 4 2 5 3 4 3 3 2 8 9 9 8 8 7 6 6
11 6 7 7 6 6 5 3 1 2 2 2 5 5 2 2 4 4 3 3 3 5 2 6 5 3 3 2 4 2 4 4 3 2 5 9 9 8 7 7 6 5 4
13 9 8 7 6 5 5 3 3 2 2 3 3 5 5 4 3 3 3 3 3 2 2 1 3 5 6 5 6 5 6 4 3 2 4 8 7 9 7 6 6 5 4
12 11 9 7 7 6 6 4 3 3 3 4 4 5 5 5 3 3 3 1 2 2 1 1 2 3 5 5 1 10 6 5 5 2 2 9 7 7 7 6 6 6 5
11 11 10 6 7 7 5 6 4 3 3 3 3 4 4 5 4 3 4 2 2 0 2 2 1 3 4 3 3 8 8 6 6 5 3 4 9 8 8 7 7 7 7
10 11 9 8 7 7 6 5 4 4 3 2 4 5 6 6 5 4 2 2 1 3 6 4 4 3 3 3 5 2 4 5 4 5 4 3 4 10 10 9 9 9 9
11 13 9 8 8 8 6 4 4 4 4 3 4 3 6 5 3 3 1 2 1 3 2 3 2 3 2 2 2 2 2 3 5 5 4 3 4 4 8 12 10 10 10
12 12 8 7 8 7 6 4 6 6 4 3 3 5 6 7 5 5 3 4 4 3 3 3 2 0 0 2 1 3 3 3 5 5 5 6 6 5 3 8 11 10 11
9 9 10 6 8 6 5 5 3 4 3 3 3 4 4 3 6 6 4 4 2 3 3 3 1 1 1 2 3 3 3 3 3 3 5 6 5 6 5 5 4 5 12
10 11 8 9 7 5 2 4 3 3 1 2 2 5 6 4 3 4 1 3 1 3 3 1 1 1 2 0 1 3 2 3 5 4 3 4 6 6 5 5 4 4 4
12 10 8 10 8 5 4 2 3 3 1 2 2 2 5 5 4 4 3 0 1 2 3 2 1 1 2 2 0 2 3 4 3 5 4 5 6 4 5 6 5 6 6
13 12 10 9 9 6 7 4 3 3 3 2 0 1 3 5 5 5 2 2 3 2 2 0 1 1 1 2 1 3 2 2 2 2 3 4 4 4 5 5 6 6 6
12 11 11 10 9 7 7 4 5 4 3 3 2 1 3 4 6 5 5 3 2 2 2 1 2 0 2 3 3 1 2 3 2 2 2 3 3 5 6 4 5 6 6
13 13 13 10 9 7 8 6 4 3 3 2 2 3 3 4 6 6 6 6 4 3 3 1 2 2 1 2 1 2 3 3 2 2 2 4 3 3 4 4 5 5 6
11 11 12 11 8 8 7 8 7 7 5 2 2 3 4 2 2 3 5 5 4 3 3 1 1 2 1 2 1 2 2 2 2 2 1 2 3 4 3 3 4 5 4
Wind_Direction
185 147 140 128 125 121 112 111 111 110 107 107 108 105 98 98 104 100 102 100 99 97 94 96 96 96 97 100 104 101 98 99 99 94 100 94 85 85 83 81 81 87 88
135 142 140 133 125 121 119 116 114 112 112 108 104 104 105 103 105 102 100 106 103 101 97 96 97 99 96 101 105 104 101 98 98 94 96 93 96 88 83 87 86 89 89
134 135 139 130 130 127 125 115 115 114 112 110 105 109 113 113 108 108 108 106 105 104 102 102 105 104 106 108 106 108 105 99 99 97 93 78 84 89 90 88 86 86 85
137 131 128 134 133 126 122 121 117 115 113 110 112 110 113 112 108 106 106 109 108 107 106 107 107 110 108 111 116 126 119 102 104 100 71 67 96 94 90 86 90 86 86
132 129 137 134 133 130 125 117 114 109 109 112 119 114 116 114 114 111 108 105 104 104 101 106 108 108 110 115 126 116 117 109 105 90 81 84 85 99 94 90 80 84 87
130 130 135 136 129 128 125 123 118 111 115 114 120 123 122 123 120 115 117 112 106 103 106 108 110 109 103 107 136 119 112 111 101 87 76 83 79 99 94 85 86 82 80
128 134 137 141 134 131 131 126 120 119 118 120 121 121 126 121 117 119 118 119 114 107 108 111 117 107 89 85 110 126 117 112 98 91 75 73 93 92 102 90 89 90 89
136 140 145 136 138 141 139 131 123 126 122 115 113 116 111 109 112 116 123 123 118 122 107 110 123 114 102 102 90 118 124 120 110 98 85 85 94 101 90 94 93 93 86
138 134 135 147 146 144 140 131 128 124 121 123 114 120 115 117 119 121 130 127 123 110 101 87 78 101 101 101 97 129 123 123 104 116 105 79 104 103 102 103 99 93 87
140 143 142 140 123 130 139 134 130 135 130 125 126 124 120 129 126 127 133 129 110 90 80 67 68 44 68 92 106 130 128 118 95 86 99 102 118 112 109 104 103 105 94
146 151 148 143 134 135 128 140 140 143 141 136 133 128 123 123 115 112 119 124 116 112 89 67 97 66 22 99 104 126 117 107 106 110 120 126 112 117 111 112 108 97 96
154 164 159 138 148 151 146 118 145 154 124 134 122 110 112 135 123 111 129 123 125 105 79 334 139 69 42 8 19 65 132 126 117 141 156 141 133 128 124 124 122 115 108
161 168 164 162 159 156 120 143 144 133 131 157 154 149 187 107 57 66 69 81 78 87 38 347 13 31 41 298 318 299 137 127 140 170 168 150 145 135 146 143 134 131 129
156 167 156 167 160 149 136 155 171 170 149 180 184 154 120 89 111 123 120 134 91 32 357 341 327 333 324 228 196 208 158 143 163 180 190 162 165 168 165 160 164 170 184
154 163 162 169 158 161 149 160 160 188 169 200 156 156 128 129 145 140 117 66 98 117 324 294 19 326 304 307 7 144 145 160 167 184 202 178 187 187 185 187 196 204 213
156 151 152 161 140 154 163 157 173 191 181 164 137 184 134 132 155 178 132 162 74 150 274 261 285 318 327 326 157 151 165 171 171 178 197 201 198 211 211 215 222 225 233
155 144 148 142 140 139 144 170 167 161 164 138 142 131 140 148 161 147 160 128 38 336 314 322 332 319 332 221 113 162 176 170 174 183 195 204 210 219 226 232 236 240 244
139 146 151 147 118 116 137 153 155 163 146 143 134 117 123 132 163 112 184 239 226 231 261 297 304 317 30 3 80 168 220 189 183 187 191 208 215 221 232 234 240 244 248
156 151 141 134 128 136 129 119 118 139 148 149 119 120 141 135 136 131 191 247 209 234 295 257 236 157 267 313 265 248 239 209 199 185 198 217 222 224 224 244 243 244 248
158 152 144 140 131 136 101 91 81 92 115 154 127 122 116 134 125 127 176 217 183 176 213 256 335 1 205 261 318 296 222 227 228 201 199 219 226 230 225 230 241 243 247
155 153 157 127 144 128 105 109 99 130 138 56 137 149 143 134 131 136 156 158 214 161 184 170 158 38 313 89 334 332 333 218 232 238 208 228 223 229 225 231 236 246 260
161 152 148 148 153 158 121 133 127 146 170 138 183 220 142 164 156 174 160 231 216 76 52 41 35 340 314 59 100 63 3 338 350 241 229 213 229 223 233 227 228 242 247
155 154 157 155 163 142 126 107 72 52 62 78 177 260 235 179 171 157 180 172 150 119 160 257 62 134 44 309 246 141 51 246 338 307 261 249 245 233 240 230 227 236 237
162 157 158 158 146 147 141 143 151 158 155 205 206 177 232 194 184 169 177 194 194 141 254 117 177 284 125 31 326 53 194 164 154 346 325 273 266 244 239 238 232 232 233
161 164 165 164 146 152 152 158 136 156 181 207 186 189 226 205 194 171 167 179 174 188 228 99 88 216 281 102 50 343 11 23 63 122 276 313 334 242 236 233 248 250 237
169 161 164 171 168 161 152 152 173 168 167 165 200 178 187 230 175 220 181 189 182 182 220 210 237 232 120 85 75 55 84 85 332 11 358 297 243 298 261 264 257 254 231